Location: Normandy Village
(37.8755°N, 122.2655°W)
Time: 01:09:02
(UTC+00:00)

Cosmos 1340 - Pass Details

Date: 22 September 2019
Orbit: 502 x 506 km, 81.2° (Epoch: 19 October)

Event Time Altitude Azimuth Distance (km) Brightness Sun altitude
Rises 12:11:59 0° 349° (N) 2,615 6.4 -21.2°
Reaches altitude 10° 12:14:07 10° 348° (NNW) 1,725 5.4 -20.8°
Maximum altitude 12:17:54 76° 263° (W) 524 2.5 -20.0°
Drops below altitude 10° 12:21:38 10° 177° (S) 1,708 5.2 -19.3°
Enters shadow 12:21:43 10° 177° (S) 1,737 5.2 -19.3°
Exits shadow 12:22:37 - 177° (S) 2,109 5.7 -19.1°
Sets 12:23:45 0° 176° (S) 2,586 6.1 -18.9°
